Weather History for Ladysmith, WI

Change the Weather History Date:

Monday, May 13, 2013

  Actual Average (KRPD) Record (KRPD)
Temperature  
Mean Temperature 44 °F -  
Max Temperature 59 °F 62 °F 73 °F (1998)
Min Temperature 28 °F 42 °F 26 °F (1997)
Degree Days  
Heating Degree Days 22    
Moisture  
Dew Point 27 °F    
Average Humidity 52    
Maximum Humidity 93    
Minimum Humidity 27    
Precipitation  
Precipitation 0.00 in - - ()
Sea Level Pressure  
Sea Level Pressure 30.03 in    
Wind  
Wind Speed 4 mph (SSE)    
Max Wind Speed 14 mph    
Max Gust Speed 18 mph    
Visibility 10 miles    
Events Rain    
Averages and records for this station are not official NWS values.
T = Trace of Precipitation, MM = Missing Value Source: NWS Daily Summary

Daily Weather History Graph

Daily Weather History Graph

Search for Another Location

Airport:

Trip Planner

Search our weather history database for the weather conditions in past years. The results will help you decide how hot, cold, wet, or windy it might be!

Date:

Astronomy

May. 13, 2013 Rise Set
Actual Time 5:35 AM CDT 8:25 PM CDT
Civil Twilight 5:01 AM CDT 9:00 PM CDT
Nautical Twilight 4:17 AM CDT 9:44 PM CDT
Astronomical Twilight 3:26 AM CDT 10:36 PM CDT
Moon 8:20 AM CDT (5/13) 11:35 PM CDT (5/13)
Length of Visible Light 15h 59m
Length of Day
14h 50m
Waxing Crescent, 12% of the Moon is Illuminated
May 13
Waxing Crescent
May 17
First Quarter
May 24
Full
May 31
Last Quarter
Jun 8
New

Hourly Weather History & Observations

Time (CDT) Temp. Windchill Dew Point Humidity Pressure Visibility Wind Dir Wind Speed Gust Speed Precip Events Conditions
12:15 AM 35.6 °F 32.8 °F 19.4 °F 52% 30.14 in 10.0 mi ENE 3.5 mph - N/A   Clear
12:35 AM 35.6 °F 32.8 °F 19.4 °F 52% 30.15 in 10.0 mi ENE 3.5 mph - N/A   Clear
12:55 AM 35.6 °F - 21.2 °F 56% 30.15 in 10.0 mi Calm Calm - N/A   Clear
1:15 AM 32.0 °F - 23.0 °F 69% 30.15 in 10.0 mi Calm Calm - N/A   Clear
1:35 AM 32.0 °F - 23.0 °F 69% 30.14 in 10.0 mi Calm Calm - N/A   Clear
1:55 AM 32.0 °F - 24.8 °F 75% 30.14 in 10.0 mi Calm Calm - N/A   Clear
2:15 AM 32.0 °F - 23.0 °F 69% 30.14 in 10.0 mi Calm Calm - N/A   Clear
2:35 AM 32.0 °F - 23.0 °F 69% 30.14 in 10.0 mi Calm Calm - N/A   Clear
2:55 AM 32.0 °F - 23.0 °F 69% 30.14 in 10.0 mi Calm Calm - N/A   Clear
3:15 AM 30.2 °F - 28.4 °F 93% 30.14 in 10.0 mi Calm Calm - N/A   Clear
3:35 AM 30.2 °F - 26.6 °F 86% 30.14 in 10.0 mi Calm Calm - N/A   Clear
3:55 AM 30.2 °F - 26.6 °F 86% 30.13 in 10.0 mi Calm Calm - N/A   Clear
4:15 AM 30.2 °F - 26.6 °F 86% 30.14 in 10.0 mi Calm Calm - N/A   Clear
4:35 AM 30.2 °F - 26.6 °F 86% 30.13 in 10.0 mi Calm Calm - N/A   Clear
4:55 AM 28.4 °F - 26.6 °F 93% 30.13 in 10.0 mi Calm Calm - N/A   Clear
5:15 AM 28.4 °F - 26.6 °F 93% 30.14 in 10.0 mi Calm Calm - N/A   Clear
5:35 AM 28.4 °F - 26.6 °F 93% 30.14 in 10.0 mi Calm Calm - N/A   Clear
5:55 AM 28.4 °F - 26.6 °F 93% 30.14 in 10.0 mi Calm Calm - N/A   Clear
6:15 AM 30.2 °F - 24.8 °F 80% 30.14 in 10.0 mi Calm Calm - N/A   Clear
6:35 AM 30.2 °F - 24.8 °F 80% 30.14 in 10.0 mi Calm Calm - N/A   Clear
6:55 AM 32.0 °F - 26.6 °F 80% 30.15 in 10.0 mi Calm Calm - N/A   Clear
7:15 AM 33.8 °F 30.8 °F 26.6 °F 75% 30.15 in 10.0 mi ESE 3.5 mph - N/A   Clear
7:35 AM 35.6 °F 32.8 °F 26.6 °F 70% 30.16 in 10.0 mi SSE 3.5 mph - N/A   Clear
7:55 AM 37.4 °F 33.8 °F 24.8 °F 60% 30.16 in 10.0 mi SSE 4.6 mph - N/A   Clear
8:15 AM 41.0 °F 37.1 °F 24.8 °F 53% 30.16 in 10.0 mi South 5.8 mph - N/A   Clear
8:35 AM 42.8 °F 38.0 °F 24.8 °F 49% 30.16 in 10.0 mi South 8.1 mph - N/A   Clear
8:55 AM 42.8 °F 38.0 °F 23.0 °F 46% 30.16 in 10.0 mi South 8.1 mph - N/A   Clear
9:15 AM 44.6 °F 41.4 °F 23.0 °F 43% 30.15 in 10.0 mi SSE 5.8 mph - N/A   Clear
9:35 AM 46.4 °F 42.4 °F 21.2 °F 37% 30.15 in 10.0 mi SE 8.1 mph - N/A   Clear
9:55 AM 46.4 °F 41.9 °F 21.2 °F 37% 30.13 in 10.0 mi South 9.2 mph - N/A   Clear
10:15 AM 50.0 °F - 21.2 °F 32% 30.13 in 10.0 mi SSE 8.1 mph - N/A   Clear
10:35 AM 50.0 °F - 21.2 °F 32% 30.12 in 10.0 mi South 9.2 mph - N/A   Clear
10:55 AM 51.8 °F - 24.8 °F 35% 30.12 in 10.0 mi South 6.9 mph - N/A   Clear
11:15 AM 51.8 °F - 23.0 °F 33% 30.11 in 10.0 mi SSW 9.2 mph - N/A   Clear
11:35 AM 53.6 °F - 23.0 °F 30% 30.10 in 10.0 mi SSW 5.8 mph 9.2 mph N/A   Clear
11:55 AM 53.6 °F - 21.2 °F 28% 30.08 in 10.0 mi SSE 5.8 mph - N/A   Clear
12:15 PM 55.4 °F - 23.0 °F 29% 30.08 in 10.0 mi South 10.4 mph 17.3 mph N/A   Clear
12:35 PM 55.4 °F - 23.0 °F 29% 30.06 in 10.0 mi South 9.2 mph 16.1 mph N/A   Clear
12:55 PM 55.4 °F - 23.0 °F 29% 30.05 in 10.0 mi SSW 10.4 mph 16.1 mph N/A   Clear
1:15 PM 57.2 °F - 24.8 °F 29% 30.03 in 10.0 mi SSE 10.4 mph - N/A   Clear
1:35 PM 57.2 °F - 24.8 °F 29% 30.03 in 10.0 mi SSE 8.1 mph - N/A   Clear
1:55 PM 59.0 °F - 24.8 °F 27% 30.02 in 10.0 mi SSE 10.4 mph - N/A   Scattered Clouds
2:15 PM 59.0 °F - 26.6 °F 29% 30.01 in 10.0 mi South 9.2 mph 17.3 mph N/A   Clear
2:35 PM 59.0 °F - 26.6 °F 29% 30.00 in 10.0 mi South 10.4 mph - N/A   Scattered Clouds
3:35 PM 59.0 °F - 26.6 °F 29% 29.97 in 10.0 mi South 11.5 mph - N/A   Overcast
3:55 PM 59.0 °F - 28.4 °F 31% 29.96 in 10.0 mi South 6.9 mph - N/A Rain Light Rain
4:15 PM 55.4 °F - 32.0 °F 41% 29.95 in 10.0 mi SSW 11.5 mph 17.3 mph N/A Rain Light Rain
4:35 PM 55.4 °F - 32.0 °F 41% 29.93 in 10.0 mi South 8.1 mph - N/A   Overcast
4:55 PM 57.2 °F - 32.0 °F 38% 29.93 in 10.0 mi South 10.4 mph - N/A   Overcast
5:15 PM 57.2 °F - 32.0 °F 38% 29.93 in 10.0 mi South 12.7 mph - N/A   Overcast
5:35 PM 57.2 °F - 30.2 °F 36% 29.92 in 10.0 mi South 13.8 mph - N/A   Mostly Cloudy
5:55 PM 59.0 °F - 32.0 °F 36% 29.93 in 10.0 mi South 12.7 mph - N/A   Mostly Cloudy
6:35 PM 57.2 °F - 32.0 °F 38% 29.90 in 10.0 mi South 11.5 mph 17.3 mph N/A   Scattered Clouds
7:15 PM 59.0 °F - 32.0 °F 36% 29.88 in 10.0 mi SSE 12.7 mph 16.1 mph N/A   Scattered Clouds
7:35 PM 57.2 °F - 32.0 °F 38% 29.88 in 10.0 mi SSE 9.2 mph - N/A   Scattered Clouds
7:55 PM 55.4 °F - 33.8 °F 44% 29.86 in 10.0 mi SSE 9.2 mph 16.1 mph N/A   Scattered Clouds
8:15 PM 55.4 °F - 33.8 °F 44% 29.85 in 10.0 mi SSE 10.4 mph - N/A   Scattered Clouds
8:35 PM 55.4 °F - 33.8 °F 44% 29.84 in 10.0 mi SSE 9.2 mph - N/A   Scattered Clouds
8:55 PM 55.4 °F - 33.8 °F 44% 29.83 in 10.0 mi SSE 10.4 mph - N/A   Scattered Clouds
9:15 PM 55.4 °F - 33.8 °F 44% 29.83 in 10.0 mi SSE 12.7 mph - N/A   Scattered Clouds
9:35 PM 53.6 °F - 33.8 °F 47% 29.83 in 10.0 mi East 3.5 mph - N/A   Mostly Cloudy
9:55 PM 53.6 °F - 33.8 °F 47% 29.83 in 10.0 mi East 5.8 mph - N/A   Scattered Clouds
10:15 PM 53.6 °F - 33.8 °F 47% 29.82 in 10.0 mi ESE 8.1 mph - N/A   Clear
10:35 PM 53.6 °F - 33.8 °F 47% 29.81 in 10.0 mi SSE 9.2 mph - N/A   Clear
10:55 PM 53.6 °F - 33.8 °F 47% 29.79 in 10.0 mi SSE 13.8 mph 18.4 mph N/A   Scattered Clouds
11:15 PM 53.6 °F - 33.8 °F 47% 29.78 in 10.0 mi SSE 12.7 mph 17.3 mph N/A   Scattered Clouds
11:35 PM 53.6 °F - 33.8 °F 47% 29.77 in 10.0 mi SSE 10.4 mph - N/A   Scattered Clouds
11:55 PM 53.6 °F - 33.8 °F 47% 29.76 in 10.0 mi SSE 8.1 mph - N/A   Scattered Clouds